OPS 4682 DEB, 38386

Orbit data source: Space-Track

OPS 4682 DEB, 38386 is space debris in LEO originally from a launch on Sat, 03 Apr 1965 UTC launched from the Air Force Western Test Range (AFWTR). Debris objects in space refer to the collection of defunct objects orbiting the Earth. Examples of debris include non-operational satellites, rocket bodies, and fragments generated from explosions, collisions, or faulty payload assembly.

Loading next visibility...
Identifier
38386, 1965-027CP
Orbit
LEO
Country
Flag of USUS
Related business
Manufacturer
Unknown
Mission
Spacecraft
Bus & Motor
Unknown
Mass
Unknown
Launch date (UTC)
1965-04-03 (61 years ago)
Launch vehicle
Unknown
Launch site
Air Force Western Test Range (AFWTR)
Object type
Payload
Rocket body
Debris
Shape & HBR
Unknown shape, 0.1 m
Radar Cross Section
Small (<0.1 m²)

Expand to show TLE details & history
Last TLE update: 21 hours ago

TLE from 21 hours ago
0 OPS 4682 DEB
1 38386U 65027CP  26138.15391375  .00001004  00000-0  32459-2 0  9992
2 38386  90.2878  33.1768 0030976 298.1901  61.6094 13.01288176653767
Epoch: 2026-05-18T03:41Z
TLE epoch observation values (Epoch: 2026-05-18T03:41:38.148Z)
Latitude
-0.00008°
Longitude
101.9216°
Altitude
1,248.738 km
Speed
7.236 km/s
True Right ascension
02h 12m 42s
True Declination
0° 00' 00"
Sunlit
Object was in daylight at epoch
Visualization orbit readout
Latitude
Unknown
Longitude
Unknown
Altitude
Unknown
Speed
Unknown
Apparent Right ascension
Unknown
Apparent Declination
Unknown
Sunlit
N/A
Visualization observer readout
Local Sidereal Time
09:02:34
Azimuth
Unknown
Elevation
Unknown
Doppler factor
Unknown
Orbital elements
Apogee altitude
1,277.811 km
Perigee altitude
1,230.527 km
Semi-major axis
7,632.306 km
Eccentricity
0.0031
Inclination
90.2878°
RAAN
33.1768°
Arg. of periapsis
298.1901°
True anomaly
61.92224°
Mean anomaly
61.6094°
Eccentric anomaly
61.76576°
Mean motion
3.25506 °/min
Orbital period
110.6 mins
BSTAR
0.0032459
Loading maneuver chart data...
Computing Atmospheric mass density...
Loading historical data...
Loading historical data...
Loading historical data...
Loading historical data...
Loading historical data...
Loading historical data...
Loading historical data...

Documentation

Showing up to 5 results
|